Wind_Speed
64 63 63 61 61 60 59 58 56 54 52 49 47 48 45 41 40 36 30 29 28 27 25 23 22 24 25 26 29 33 37 40 41 43 45 46 46 46 46 46 46 46 44 42 40 39 37 36 33 30 28 27 25 24 24 24 24 26 28 28 27 26 25 23 21 20 21 21 19 18 16 14 12 10 8 7 6 5 5 5 5 7 8 10 12 13 14
65 65 64 62 61 60 60 59 57 55 53 51 50 49 46 43 41 35 31 31 30 29 27 25 24 24 24 25 26 28 32 35 39 42 44 46 48 48 48 48 47 47 45 43 42 41 39 38 35 32 29 26 25 25 25 23 22 23 25 26 26 25 24 22 22 23 23 22 20 19 17 15 14 13 11 9 8 6 5 5 4 4 5 6 9 11 12
66 66 65 64 62 61 61 61 58 57 55 53 53 51 47 45 42 36 33 34 32 29 27 27 27 26 25 25 25 26 29 32 36 39 42 44 46 47 48 48 48 47 45 42 41 41 41 40 38 35 31 26 25 26 27 25 23 23 24 24 25 24 23 23 24 24 23 22 20 19 17 17 17 16 14 13 11 9 8 7 6 6 5 5 6 8 10
68 68 66 65 64 63 63 62 60 58 57 55 54 53 49 47 44 38 36 36 32 29 28 27 28 28 27 27 26 26 27 29 31 34 36 38 40 42 44 46 46 45 43 42 41 40 41 42 41 39 35 29 26 25 25 24 24 24 24 23 24 23 23 24 25 24 23 22 21 19 18 17 18 18 17 16 14 13 11 10 9 9 8 7 7 7 8
70 70 69 67 66 65 64 63 61 58 57 56 55 54 51 49 46 41 39 38 33 30 30 29 28 28 28 28 28 27 28 29 29 30 31 32 34 36 38 40 42 43 42 41 41 41 41 42 42 41 38 33 28 25 25 24 24 24 23 23 23 24 24 25 25 24 23 22 21 19 18 19 19 20 20 19 17 16 15 14 14 12 10 10 10 10 9
71 72 71 68 68 67 66 65 62 60 59 57 56 55 53 51 49 44 42 40 35 32 32 32 29 28 29 30 30 31 31 31 31 29 28 28 30 31 32 34 36 38 39 39 39 40 41 41 42 42 39 34 29 27 26 25 23 23 22 22 23 24 25 26 25 24 24 23 21 20 21 21 22 21 21 20 19 19 18 18 18 16 14 14 14 13 13
73 73 72 70 69 69 68 67 65 62 61 59 59 58 55 53 51 47 44 42 37 34 34 33 29 30 31 32 33 34 34 33 32 31 29 28 28 29 29 29 30 31 32 33 34 36 38 39 40 40 39 35 32 29 27 26 24 23 22 22 23 24 25 26 25 24 24 23 23 22 22 23 23 22 23 23 22 22 21 21 21 21 21 20 18 17 17
75 75 73 72 71 71 70 69 66 64 62 61 61 59 56 54 52 50 48 44 39 36 36 34 32 33 35 35 35 35 35 36 36 33 32 31 30 30 29 28 27 26 26 27 29 32 34 35 37 38 37 35 32 30 28 27 25 24 22 21 22 23 24 24 23 23 23 23 24 24 24 24 24 24 25 25 25 25 24 24 25 26 27 26 23 22 23
77 76 75 74 73 73 71 70 68 66 65 63 61 60 59 57 55 53 50 46 41 38 37 36 35 35 36 36 35 34 35 37 38 36 35 34 32 31 30 29 28 26 25 25 26 28 30 32 33 35 35 33 31 29 28 26 25 25 24 22 21 21 22 23 22 22 23 24 26 27 27 27 26 26 26 25 25 26 27 27 28 29 29 30 30 30 29
78 78 77 75 74 73 72 72 71 69 66 65 63 61 61 60 57 53 50 47 43 40 38 38 37 36 37 36 34 33 35 38 39 38 37 36 35 34 33 32 30 28 26 25 26 27 29 30 31 32 33 32 30 28 28 27 27 27 27 25 23 22 22 23 23 23 25 27 29 29 29 29 29 29 28 28 28 30 31 30 30 31 31 30 31 32 33
80 79 78 76 75 75 75 75 73 70 67 66 64 61 61 61 58 54 51 49 45 41 40 39 38 38 38 37 34 33 35 38 39 39 38 38 38 37 36 34 33 31 29 28 27 27 29 30 30 31 33 33 32 30 30 29 29 28 28 28 27 25 24 23 24 25 27 27 28 28 28 29 32 34 34 33 33 34 34 33 33 33 32 31 30 32 34
81 80 79 77 76 76 77 77 75 71 69 67 65 62 62 61 59 55 52 50 47 43 41 40 40 40 39 37 34 34 36 38 39 39 39 39 39 39 38 36 34 33 32 31 30 29 29 31 31 32 34 35 35 35 34 32 30 29 30 31 31 29 27 25 25 27 27 27 26 26 27 30 34 37 37 37 39 40 39 37 36 35 34 32 31 32 34
82 81 80 80 79 78 78 78 75 72 70 69 66 64 63 62 60 57 54 52 49 45 43 42 42 42 40 38 35 34 35 37 39 39 38 39 39 39 39 38 36 35 34 33 32 31 31 32 32 33 35 36 36 37 38 36 33 32 33 34 33 32 29 28 28 28 29 29 29 28 29 31 35 36 35 35 38 40 40 38 37 37 36 34 34 33 34
83 83 82 81 81 80 79 78 76 73 71 70 68 65 64 63 61 59 56 53 50 47 45 43 43 43 42 39 37 36 35 37 39 39 38 38 38 39 39 39 38 36 35 35 35 34 34 34 34 34 36 36 35 36 38 39 37 35 35 35 33 32 31 31 31 31 32 33 33 32 32 34 36 35 33 32 33 34 35 34 34 34 35 35 35 35 35
84 84 84 83 82 82 81 79 76 74 72 71 70 67 65 63 62 61 59 55 52 49 46 45 44 43 43 41 40 38 36 36 38 39 39 38 38 38 39 39 38 37 36 35 35 35 35 35 35 35 35 36 36 35 37 38 38 35 33 32 32 32 33 34 33 33 34 35 36 36 37 38 38 36 33 32 31 32 32 33 34 35 36 36 37 38 38
87 86 86 86 84 83 82 79 77 75 73 72 71 69 67 65 63 61 59 57 54 51 49 46 45 44 43 43 41 40 38 38 38 39 39 39 39 39 39 39 38 37 36 35 36 36 36 36 36 35 35 36 37 36 36 37 38 35 33 33 33 34 35 36 36 36 36 37 38 39 41 41 40 37 35 34 34 34 35 36 38 39 39 40 41 41 42
90 89 87 87 85 83 83 82 79 77 74 72 71 70 69 67 65 62 60 58 55 53 50 48 46 44 44 43 43 42 40 38 38 38 39 40 40 40 40 40 39 39 37 36 36 36 36 36 36 36 36 36 37 38 38 38 38 38 36 36 37 38 38 39 39 39 40 40 41 43 44 43 40 38 38 38 38 38 38 40 41 42 42 43 45 46 47
90 91 88 87 86 85 84 83 81 78 75 73 72 71 70 68 66 63 61 60 58 55 52 48 46 44 44 44 44 43 41 39 38 38 39 40 40 40 40 41 41 40 39 38 37 36 37 36 36 37 37 38 38 38 39 40 40 40 40 40 41 42 42 43 43 44 44 44 45 45 45 43 40 39 40 41 41 41 42 43 44 45 46 47 49 50 51
88 90 89 89 87 86 85 83 81 79 77 74 73 72 71 69 67 65 62 61 59 57 53 49 46 44 43 44 45 44 42 40 38 38 38 39 40 40 40 41 41 41 41 40 39 38 38 37 38 38 39 40 40 40 40 41 41 42 42 43 44 45 46 47 47 48 47 46 45 44 43 42 42 42 43 44 45 46 46 46 48 49 50 52 54 54 55
85 89 90 89 88 87 86 84 82 81 78 76 74 74 73 71 68 66 64 62 60 58 55 51 47 44 43 43 44 44 44 41 40 38 38 38 39 39 40 41 41 41 41 41 40 39 39 38 39 39 39 40 41 42 42 42 42 43 43 44 44 45 46 47 47 46 45 44 43 43 44 45 46 46 47 47 48 48 49 49 51 52 53 55 56 57 58
79 84 86 86 87 88 86 84 84 83 80 78 76 74 73 71 69 67 65 63 61 59 57 53 49 46 45 44 43 43 44 43 41 40 39 39 39 39 39 40 40 41 41 41 41 41 40 39 39 39 39 39 40 42 43 44 44 44 44 44 45 45 46 45 45 45 45 45 45 46 47 49 50 50 50 50 49 49 50 51 52 53 54 55 57 57 58
70 75 78 80 84 86 86 86 85 84 82 80 78 75 74 72 70 69 67 65 62 60 58 55 51 47 46 46 45 44 44 44 43 42 41 40 40 40 40 39 40 40 41 41 41 41 40 39 38 38 38 37 38 39 42 43 44 45 45 46 47 47 47 47 47 48 48 48 49 51 52 53 54 53 53 52 52 51 51 51 53 55 56 56 58 59 60
61 65 69 75 80 83 83 84 85 84 83 81 79 77 74 73 71 70 68 67 64 61 59 57 54 50 47 46 46 46 45 44 44 44 43 42 41 41 41 40 39 40 40 40 41 41 40 39 38 38 38 38 37 38 38 40 41 43 45 47 49 50 51 52 52 53 53 53 54 54 55 55 55 54 54 54 54 54 54 55 56 57 58 58 59 61 62
49 54 59 66 73 75 76 79 82 83 83 82 80 78 75 73 72 71 70 68 66 62 60 58 56 53 48 45 46 47 46 46 46 45 44 43 42 41 41 41 41 41 40 41 41 41 41 41 40 40 39 39 39 39 39 40 41 42 44 45 46 48 49 50 51 52 52 53 53 53 53 53 53 53 54 54 55 56 57 58 58 59 60 61 61 62 64
41 47 52 59 65 68 69 73 76 77 78 80 79 78 77 75 73 71 70 69 67 64 61 60 58 55 49 44 45 47 48 47 47 47 45 44 42 42 41 42 42 42 42 42 42 43 43 42 42 41 41 40 40 41 42 43 44 45 45 45 45 45 45 45 46 47 48 49 50 51 52 53 54 55 56 57 58 59 59 60 61 61 62 63 63 64 65
38 45 51 57 62 63 64 67 69 69 71 74 75 76 76 75 73 71 70 68 66 65 63 61 58 55 50 45 42 44 47 49 49 49 48 46 45 44 43 43 43 43 44 44 44 44 44 44 43 43 42 42 42 43 44 45 46 46 47 47 46 45 44 45 45 47 48 50 51 52 54 56 57 58 59 60 60 61 61 62 62 63 64 65 65 66 67
30 41 49 55 58 58 58 58 58 59 62 66 69 71 72 72 72 71 69 66 64 62 62 62 60 57 53 48 42 41 44 48 50 51 51 50 49 47 46 46 46 46 46 46 46 46 46 45 45 45 45 44 44 45 45 46 46 46 47 48 48 47 47 47 48 49 50 52 53 54 56 58 60 61 61 61 62 62 62 63 63 63 64 64 65 67 68
20 31 43 49 51 51 51 50 50 53 57 58 57 58 58 59 62 65 67 66 61 54 50 53 57 58 57 54 48 42 41 43 47 51 52 52 52 51 50 50 50 49 49 49 49 49 49 48 48 48 46 46 46 46 47 47 47 46 47 48 49 49 49 49 50 51 52 53 54 55 57 58 60 61 62 62 62 62 63 63 63 63 63 63 63 65 67
20 27 38 46 47 48 50 50 51 53 54 51 50 49 49 48 46 46 50 56 55 49 45 45 45 48 52 53 50 46 44 42 44 48 52 54 54 53 53 53 52 52 52 52 52 52 52 50 49 48 48 48 48 49 48 48 49 49 48 49 49 49 50 50 50 51 52 53 54 54 55 56 57 58 59 59 60 61 61 61 61 61 61 61 62 63 65
17 23 34 45 50 51 51 51 50 51 49 47 47 47 47 46 42 38 39 43 43 42 46 48 45 43 45 47 45 44 44 44 45 47 50 53 55 55 54 54 54 55 55 55 54 53 53 52 50 50 50 51 52 51 51 51 51 51 51 51 52 51 51 51 51 52 53 53 54 55 55 56 56 56 57 57 58 58 59 59 59 59 59 60 61 62 63
11 18 30 43 52 54 52 50 49 48 47 45 44 44 42 42 41 39 38 39 39 39 42 47 48 45 43 44 44 43 43 45 48 49 51 53 54 55 55 56 57 58 57 56 55 55 54 54 53 53 54 54 54 53 53 53 54 53 53 53 52 51 51 51 52 53 54 55 56 57 57 57 57 57 57 57 57 57 57 57 57 57 58 59 61 61 62
4 13 24 37 48 53 52 51 48 46 44 42 41 40 38 36 36 36 35 38 43 44 44 46 49 47 44 45 48 48 46 48 50 52 53 54 55 55 57 59 60 60 59 58 58 57 57 57 56 57 57 57 56 54 54 54 54 53 51 50 49 49 50 51 53 54 55 56 57 58 58 58 57 56 55 55 55 55 55 56 55 56 57 58 60 61 61
7 15 19 29 40 44 45 45 43 41 41 41 42 42 40 37 37 39 39 40 43 46 47 49 52 50 47 48 51 51 51 52 53 54 55 56 57 58 60 62 63 63 63 61 60 60 60 60 60 61 61 60 58 56 55 54 52 49 47 45 45 46 49 51 53 55 56 57 58 58 57 56 55 54 54 54 54 55 55 55 55 55 56 57 58 58 58
17 23 26 30 33 34 34 36 37 37 38 40 43 46 45 42 41 43 45 44 44 46 49 52 54 53 51 51 53 53 53 55 56 55 55 55 56 58 61 64 66 65 64 63 62 62 62 63 64 64 63 62 60 56 53 50 47 44 42 42 43 44 47 50 51 52 54 55 56 56 56 55 54 53 53 53 54 54 55 55 55 55 55 56 57 57 56
20 25 27 28 27 25 25 26 28 33 39 41 43 45 46 44 43 45 48 49 47 46 45 47 49 52 53 54 55 56 56 57 57 57 57 57 56 56 59 63 67 67 66 64 62 62 63 66 66 65 63 59 55 50 47 45 43 41 41 42 43 45 47 48 47 47 48 48 49 50 50 51 51 51 51 51 52 53 53 54 54 55 55 55 56 56 56
21 24 24 21 18 20 22 22 22 27 34 39 43 44 44 43 43 45 48 50 50 48 45 42 42 43 45 46 50 54 58 58 57 57 58 59 58 58 59 63 66 67 64 61 60 61 63 63 60 57 53 49 45 44 43 43 43 43 44 44 43 44 45 45 45 44 44 43 44 44 45 46 46 47 48 49 50 50 51 52 53 54 55 55 55 55 54
20 22 21 18 16 18 23 25 24 23 25 33 42 45 45 45 44 43 44 46 46 44 42 38 34 33 34 37 41 47 53 55 56 58 60 60 60 60 60 61 62 61 59 57 57 57 56 52 48 45 44 43 42 43 44 45 47 48 47 45 43 43 43 43 43 42 42 41 41 42 43 44 44 45 46 47 48 49 50 51 52 53 53 52 52 50 49
19 20 19 18 18 19 20 22 22 20 20 27 39 46 48 48 45 40 36 36 37 35 32 27 25 27 31 34 36 40 45 48 50 52 54 56 56 55 53 52 52 53 52 51 48 47 46 46 45 45 45 45 46 47 48 49 52 52 49 46 43 42 42 41 40 41 41 41 41 42 43 44 45 45 45 46 47 47 48 48 48 48 47 47 46 46 44
21 21 21 20 19 17 18 20 20 18 15 17 25 34 39 44 46 43 36 31 29 29 26 21 19 21 25 29 32 34 37 39 40 40 41 42 42 42 41 41 42 44 44 43 42 41 43 45 47 48 48 49 49 50 50 52 53 52 49 46 44 42 40 39 39 39 40 40 41 42 43 44 44 44 44 45 45 45 44 44 43 43 43 43 43 43 43
19 19 21 22 22 20 19 19 18 17 16 15 18 21 25 30 37 42 41 35 31 29 27 24 21 19 20 23 27 30 31 32 33 33 32 31 31 31 32 33 35 36 36 37 38 40 41 43 44 45 46 47 49 50 51 51 51 50 48 45 43 41 39 39 38 39 39 40 40 41 42 42 42 42 42 42 42 42 41 41 41 41 41 41 42 42 42
19 18 20 23 24 23 20 20 21 22 22 23 23 23 23 23 26 30 33 32 30 29 28 26 24 22 20 21 24 27 28 28 29 29 29 29 29 29 30 31 32 33 35 36 38 39 40 41 42 44 45 46 48 49 49 49 49 47 45 43 41 39 39 38 37 37 38 39 39 40 41 41 40 39 39 39 39 39 39 39 39 40 40 40 41 41 41
23 23 23 25 28 27 24 23 24 25 27 29 27 25 25 26 26 25 25 25 24 23 23 23 23 23 23 23 23 25 27 28 29 29 31 31 31 31 32 33 33 34 36 38 39 40 41 42 43 44 45 46 47 46 46 46 46 45 43 41 39 38 38 37 36 36 36 37 38 39 39 39 38 37 37 36 36 36 37 37 38 38 39 39 40 40 39
30 31 30 30 33 33 31 29 30 31 33 35 35 31 29 29 28 27 27 27 26 25 24 24 25 26 27 25 24 25 27 28 29 30 31 32 32 33 34 34 35 36 37 38 39 40 41 42 43 43 44 44 44 43 43 43 43 42 41 39 38 38 37 36 35 35 35 36 37 37 38 37 37 36 35 34 34 34 35 36 37 37 38 38 38 38 38
23 26 27 27 30 32 32 32 34 34 34 36 39 37 34 31 30 30 32 32 32 30 28 27 28 29 29 28 27 27 28 29 30 30 31 32 33 34 35 35 36 37 37 38 38 38 39 40 40 40 41 41 41 42 42 42 42 41 40 39 38 38 37 36 35 34 34 34 35 36 36 36 35 35 34 34 33 33 33 34 35 36 37 37 37 37 37
8 9 11 13 15 17 18 20 22 24 25 30 35 37 35 34 33 34 36 37 36 34 32 30 30 31 31 30 29 28 28 29 30 30 31 32 32 33 34 35 35 35 35 36 36 36 36 37 38 38 39 40 41 42 42 42 41 40 40 39 38 38 37 36 35 34 33 34 34 34 35 35 34 34 34 34 34 34 34 34 35 35 36 36 36 35 35
4 3 3 4 5 5 6 7 9 10 12 17 23 26 28 29 30 31 32 34 35 34 33 33 33 33 33 32 32 32 32 32 33 33 33 34 34 35 35 35 34 34 35 35 35 35 35 36 37 37 38 39 40 40 40 40 39 39 38 38 37 37 37 36 35 34 33 33 34 34 34 34 34 34 34 34 35 35 35 35 36 36 36 36 36 35 34
5 4 4 4 5 6 7 9 10 10 10 12 14 17 18 19 19 19 21 23 25 26 27 27 27 27 28 30 31 31 31 31 31 31 31 31 31 32 32 32 32 33 33 32 33 33 33 34 35 36 36 37 37 37 37 37 36 36 36 36 36 35 35 34 34 33 33 33 33 34 34 34 35 35 35 35 35 34 35 35 35 35 35 36 36 35 35
3 3 2 2 2 3 4 5 6 7 8 10 12 14 15 15 15 15 15 16 17 18 18 18 19 20 21 22 23 23 23 22 22 22 22 23 23 24 25 26 26 27 27 28 29 29 30 31 32 33 33 33 34 34 33 33 33 32 32 32 32 32 32 32 32 31 31 32 32 32 33 33 33 34 34 34 34 34 33 33 33 33 33 33 32 32 33
5 5 4 3 2 3 3 3 3 4 4 5 7 8 10 10 10 11 11 12 12 13 13 13 14 15 16 17 17 17 17 17 17 17 17 18 19 20 21 22 23 24 24 25 26 26 27 28 29 29 30 30 30 30 30 30 29 29 29 29 30 30 30 30 30 30 30 30 31 31 31 31 31 31 32 32 32 32 32 32 32 32 32 32 31 31 32
7 8 7 7 6 7 7 6 6 6 6 6 6 6 7 8 8 8 8 9 9 9 9 10 10 11 12 13 13 13 14 14 14 15 15 16 17 18 19 20 21 21 22 23 23 24 25 25 26 26 27 27 27 27 27 27 27 27 27 28 28 28 29 29 29 30 30 30 30 31 31 31 31 31 31 31 31 31 32 32 32 32 32 32 32 32 33
10 10 10 10 10 10 10 10 10 10 10 10 10 10 10 10 10 10 10 10 10 10 10 10 11 11 12 12 12 13 13 14 14 14 15 16 17 18 18 19 20 20 21 21 22 22 23 24 24 25 25 26 26 26 26 27 27 27 28 28 28 29 29 29 30 30 30 31 31 31 31 31 32 32 32 32 32 32 32 32 33 33 33 33 33 33 34
13 13 13 14 14 14 14 14 14 14 14 14 14 14 14 13 13 13 13 13 14 14 14 14 14 14 15 15 15 16 16 17 17 17 18 18 19 20 21 21 22 22 23 23 24 24 24 25 25 25 26 26 27 27 28 28 29 29 29 30 30 30 31 31 31 32 32 33 33 33 33 33 33 33 33 33 33 33 33 33 34 34 35 35 35 35 35
Wind_Direction
219 220 222 222 222 224 226 227 228 229 229 228 228 229 229 228 227 224 220 219 220 212 200 194 200 207 209 210 207 203 202 204 206 207 208 209 210 212 213 214 216 219 222 223 225 226 227 228 228 230 240 249 251 250 251 254 256 253 247 243 240 237 236 236 232 229 228 231 235 238 238 235 232 228 221 216 211 206 202 199 205 217 228 234 237 239 242
217 219 221 222 222 224 226 227 228 228 229 229 230 230 229 229 229 225 221 222 220 217 209 199 200 209 213 214 214 209 206 205 207 209 210 210 211 213 214 216 217 220 222 223 224 224 223 224 225 227 234 244 250 249 249 251 253 251 247 244 240 237 236 235 230 226 227 232 236 238 238 235 232 228 224 220 214 206 200 193 192 205 221 234 241 243 245
218 219 220 221 222 223 225 227 227 227 228 229 230 231 230 231 230 225 223 225 222 220 215 203 202 211 217 219 219 216 213 211 211 213 214 215 215 215 217 219 221 223 224 224 224 222 220 220 222 224 228 238 246 249 249 248 248 249 247 244 241 238 234 231 227 224 227 232 236 238 239 238 236 233 230 228 224 218 214 209 211 217 218 225 242 248 249
217 219 220 221 221 221 223 225 226 226 228 229 231 232 232 232 232 227 224 225 224 223 221 214 210 213 217 222 225 223 220 219 218 218 219 221 221 220 221 222 224 227 228 227 226 222 219 220 222 223 227 232 239 247 250 248 246 247 246 245 243 239 231 226 223 223 226 230 233 237 239 241 241 239 236 235 234 232 229 226 228 230 225 228 242 253 258
217 218 219 219 221 221 222 224 225 226 228 230 232 233 233 233 233 229 225 225 223 222 222 221 219 216 215 220 226 228 227 225 223 222 222 223 225 226 226 225 226 228 230 229 228 224 222 221 222 224 226 228 233 243 248 249 248 248 247 246 243 237 229 223 219 220 224 229 233 237 240 241 241 241 240 240 241 241 240 240 243 243 238 240 247 253 258
216 218 218 218 221 222 222 222 224 226 227 229 231 233 233 233 233 230 228 226 221 219 221 221 220 219 218 218 222 227 229 229 227 225 224 222 222 224 226 226 226 228 230 231 229 227 226 225 224 225 226 227 229 237 244 249 251 252 249 246 241 235 228 222 217 218 225 230 235 236 236 237 238 241 244 245 245 244 245 249 254 254 251 251 255 258 258
217 218 218 218 220 222 223 222 222 224 226 228 230 231 232 233 234 232 230 228 221 219 223 222 219 220 221 219 221 225 229 232 232 229 226 224 221 222 223 224 225 227 229 230 230 229 229 229 227 226 227 228 229 235 242 246 249 251 250 247 243 237 231 226 223 225 230 235 238 237 235 235 238 241 245 248 250 250 250 253 257 260 260 260 260 260 261
217 219 219 219 220 222 224 224 223 223 225 227 229 231 232 233 235 233 231 228 223 220 224 225 221 220 221 221 221 223 228 233 236 235 232 228 225 224 224 226 228 229 231 231 230 229 229 229 227 226 227 229 231 233 238 243 246 250 251 250 248 243 238 234 232 233 236 239 241 241 241 242 242 243 246 249 252 254 254 254 256 259 263 266 266 265 264
218 219 220 220 221 223 224 226 225 223 224 225 227 230 233 233 233 233 232 229 224 222 224 226 225 223 223 222 221 222 226 232 235 237 237 235 232 229 229 232 234 234 234 235 234 233 231 228 225 224 225 230 231 231 235 240 245 250 254 255 255 252 248 244 242 243 244 242 241 243 247 249 249 249 249 250 252 254 255 255 255 256 258 261 263 265 265
219 220 221 221 222 223 225 226 227 225 224 225 226 229 232 234 233 234 233 231 227 223 223 225 225 225 225 223 220 221 225 230 233 235 237 238 237 234 233 234 236 238 239 238 238 238 236 232 227 223 223 228 231 232 234 239 244 250 255 258 259 258 254 251 252 256 254 248 244 246 252 256 257 255 252 251 253 255 254 253 253 253 252 254 258 262 264
220 220 221 221 222 224 225 227 227 226 226 226 226 228 232 234 234 234 234 233 231 226 222 223 225 226 226 225 221 220 224 229 232 233 234 236 237 237 235 234 234 237 240 241 241 241 240 238 233 226 223 225 227 229 232 237 242 248 254 258 259 259 259 258 259 262 260 254 252 255 260 262 261 257 254 254 255 255 254 254 255 255 256 258 261 265 267
221 221 221 221 222 224 226 227 227 226 227 227 228 229 231 233 234 234 234 234 233 229 224 223 224 226 228 226 223 221 225 229 232 232 233 235 237 238 238 236 234 234 237 239 241 242 243 242 238 232 228 226 225 225 228 233 240 246 250 254 256 257 260 261 262 264 261 257 258 262 263 262 261 259 257 257 258 255 253 255 256 256 258 261 265 268 270
221 221 222 222 223 223 225 227 227 226 227 228 229 229 231 232 233 233 233 233 234 232 228 225 225 228 230 229 225 223 226 230 233 233 233 235 237 239 239 239 236 233 233 236 238 240 242 243 240 236 233 230 227 225 225 228 235 241 245 249 252 254 258 260 261 264 263 261 262 263 261 260 262 264 264 265 265 261 257 258 260 259 259 261 264 266 267
221 222 222 223 224 224 225 227 227 226 227 229 229 229 230 232 232 232 232 232 233 233 231 228 227 229 231 231 228 225 226 230 233 235 235 235 237 239 240 241 240 237 234 234 237 239 241 242 241 239 238 235 230 226 225 225 230 236 242 246 249 252 255 258 260 261 262 263 264 264 263 264 267 269 269 269 268 263 260 262 263 263 262 263 264 266 268
222 222 223 224 225 225 225 226 227 227 227 229 229 229 230 231 231 231 232 231 232 233 234 232 230 230 232 234 231 228 227 229 232 234 235 236 237 239 240 241 242 240 237 234 236 238 239 240 241 240 241 241 238 231 226 225 228 234 241 244 246 249 252 254 256 257 258 261 263 264 265 267 268 268 266 265 265 262 261 263 264 265 265 267 269 272 274
223 223 223 224 225 225 226 226 227 227 228 229 230 230 231 231 231 231 232 231 230 232 233 233 232 231 232 234 234 231 229 229 231 232 234 235 237 239 241 242 242 241 238 235 234 236 238 239 240 240 241 243 244 241 235 230 229 233 239 243 244 246 249 251 253 254 256 258 259 261 263 265 265 264 263 264 264 265 265 266 268 269 271 273 275 277 278
224 223 223 224 225 225 226 227 227 227 228 229 230 231 232 232 232 232 232 232 231 230 232 233 233 233 233 234 235 234 231 229 230 232 233 234 236 238 240 242 243 242 240 236 234 235 236 238 239 241 242 243 245 245 244 240 235 234 237 241 244 246 248 250 252 253 255 256 258 259 261 262 262 263 266 267 268 269 270 271 272 274 275 276 278 279 279
225 224 224 225 225 226 227 228 228 228 227 228 230 232 232 233 234 233 233 233 232 231 231 231 232 233 234 235 236 235 234 232 231 232 233 234 235 236 238 241 243 243 242 240 237 236 236 237 238 240 242 244 245 246 246 246 243 240 239 240 242 245 247 249 251 253 255 257 258 258 259 260 262 266 269 270 271 272 272 272 273 274 273 273 275 276 276
226 226 225 226 226 227 228 229 229 229 228 228 230 232 233 233 234 234 234 234 234 233 231 230 230 231 233 235 237 237 236 234 233 234 235 235 236 236 238 239 241 243 243 243 242 240 238 237 238 240 243 245 246 246 246 247 246 244 242 241 242 244 247 249 252 254 256 257 258 259 261 263 266 269 270 272 273 273 273 272 272 271 270 270 271 273 274
228 227 226 226 227 228 229 229 230 230 230 229 229 232 233 233 234 235 235 235 235 235 233 230 229 229 231 234 237 238 237 237 236 235 236 237 237 238 238 240 241 242 243 243 243 243 242 240 239 240 242 245 246 247 246 246 247 247 247 246 246 247 249 251 253 255 257 257 259 261 263 265 268 270 271 272 273 272 271 270 269 269 269 269 270 271 272
230 229 228 228 229 229 230 230 231 231 231 231 230 231 233 234 235 236 237 236 236 237 237 233 229 229 231 233 235 238 239 239 238 237 237 237 239 239 240 241 242 244 244 245 245 245 244 243 241 240 241 243 245 245 246 246 247 248 250 251 252 253 254 254 255 256 257 257 259 261 263 264 267 269 270 271 270 268 266 266 266 266 267 268 269 271 272
231 231 230 231 231 230 231 231 232 232 232 232 232 232 232 234 235 236 237 238 237 238 239 237 233 229 229 231 233 236 238 240 240 239 238 238 239 240 241 242 243 245 247 247 246 246 246 245 244 242 241 242 243 244 245 246 248 249 251 252 253 255 256 256 256 256 257 258 259 261 262 264 266 268 269 268 267 266 265 265 265 267 268 270 272 273 274
233 232 232 232 232 231 232 232 232 232 233 233 233 233 233 233 235 236 237 238 238 238 239 241 239 234 230 230 231 234 236 239 240 240 240 239 239 240 241 242 244 246 248 248 248 248 247 246 245 245 244 244 244 244 244 245 247 249 250 252 253 254 255 256 257 258 259 260 261 262 264 265 267 268 268 267 266 266 266 266 267 269 271 272 274 275 275
234 233 233 233 233 232 233 233 234 233 234 235 235 234 234 234 235 236 237 237 238 238 239 241 242 241 236 231 229 231 234 236 238 240 240 241 241 242 243 243 244 245 247 249 249 249 248 247 246 245 245 245 246 246 247 248 249 250 251 252 252 253 254 256 257 258 259 260 261 263 264 265 266 266 266 266 266 266 266 267 268 269 271 272 273 274 274
227 228 230 231 232 232 232 233 234 234 235 236 236 236 236 235 235 236 237 237 237 238 239 241 243 245 244 237 230 229 231 234 236 238 239 241 242 243 244 244 245 245 246 247 248 249 249 249 247 246 246 246 246 247 248 249 252 253 254 254 254 254 255 256 257 258 259 260 261 263 264 264 265 265 265 265 266 266 267 268 268 269 270 271 272 274 275
221 222 225 228 229 229 230 232 233 234 234 236 237 237 237 236 237 238 239 239 239 239 240 241 242 245 248 245 235 229 230 232 234 236 238 239 241 242 244 245 246 246 246 247 248 249 249 250 250 249 249 248 247 247 247 249 251 252 253 255 256 257 257 258 258 259 260 261 262 263 264 264 265 265 266 266 267 268 269 269 270 271 272 273 275 276 276
223 220 223 226 227 227 227 228 228 229 232 234 236 238 238 238 239 240 240 241 242 243 243 244 244 245 247 248 242 234 230 232 234 236 238 239 240 241 243 244 246 246 247 247 247 248 249 250 251 251 250 249 248 247 247 249 250 250 251 253 255 257 258 259 259 260 262 263 264 264 265 265 266 266 267 268 269 269 271 272 274 275 276 277 278 278 278
243 225 220 219 219 219 218 217 218 221 226 229 231 234 237 238 239 240 241 242 244 245 245 247 248 247 245 245 243 236 229 229 231 234 236 238 239 240 242 243 245 246 247 247 248 248 249 249 249 250 250 250 250 250 250 252 252 251 252 253 255 257 259 261 262 264 265 266 266 266 267 268 268 268 269 269 270 271 273 274 275 276 277 278 278 278 279
255 234 218 211 206 205 207 209 214 218 222 224 225 227 230 232 233 236 238 240 241 241 238 239 242 242 241 240 240 236 232 230 230 232 234 235 237 239 240 243 244 246 247 247 247 247 248 248 248 249 250 250 251 252 253 254 255 255 256 258 259 262 264 266 267 268 268 269 269 269 271 272 272 271 271 271 272 273 274 274 275 275 276 276 276 277 278
250 233 217 206 199 197 199 203 209 213 215 218 221 222 224 225 226 226 231 235 237 236 233 233 234 235 235 235 235 234 234 232 230 230 231 233 235 237 239 242 244 245 245 245 245 245 246 247 247 248 249 249 249 251 252 254 255 257 259 261 263 265 267 268 270 270 270 270 270 271 272 273 273 272 273 274 274 275 275 275 275 276 276 276 276 277 278
252 226 215 206 196 190 189 192 197 201 204 209 214 217 218 220 221 223 226 229 230 229 228 228 230 232 234 235 233 231 231 231 229 229 230 231 233 236 238 239 241 241 241 242 243 243 244 244 245 246 247 248 248 250 253 255 256 258 260 262 264 267 268 270 271 271 271 271 271 272 274 274 274 274 274 275 276 276 276 276 276 276 276 276 277 278 279
239 201 208 205 194 185 183 185 187 189 192 198 204 207 207 209 214 218 219 220 223 225 226 227 229 231 232 234 233 230 228 228 228 229 230 231 232 234 237 238 238 238 237 238 240 241 242 242 242 243 245 247 248 250 253 255 257 260 262 264 267 269 270 271 272 271 271 271 272 273 274 274 275 275 276 276 276 276 276 276 276 276 276 277 278 279 280
133 154 175 188 185 180 178 180 181 181 184 191 195 195 193 195 202 208 210 211 215 220 223 227 231 231 229 231 232 230 227 227 228 228 229 231 233 235 237 237 236 234 234 236 238 241 241 241 241 243 244 245 246 249 253 256 259 262 264 266 269 271 272 271 271 270 269 270 271 272 272 272 273 274 275 275 275 275 274 274 275 275 276 277 278 281 283
132 137 144 157 165 168 172 178 180 182 185 189 191 190 190 193 198 202 204 207 211 214 215 219 224 227 227 229 231 232 231 230 231 231 231 231 234 237 239 238 236 235 235 236 239 241 242 242 243 244 244 245 247 252 255 258 259 260 263 267 270 272 273 272 271 270 269 270 270 271 271 270 271 273 274 274 274 273 272 272 273 273 275 277 280 283 286
125 137 144 151 157 163 168 173 179 186 191 194 192 191 192 195 201 204 205 206 208 209 207 205 209 215 220 225 229 234 235 234 233 233 232 232 234 238 239 237 235 234 235 237 240 243 244 245 246 245 246 247 251 254 255 255 256 259 264 270 273 274 274 275 274 272 271 271 272 272 271 270 271 273 273 273 273 273 272 272 272 273 276 279 282 286 288
119 134 142 146 152 164 172 175 180 188 195 199 198 196 195 197 200 202 203 204 207 210 209 206 205 208 213 216 220 225 228 229 230 231 231 232 235 237 235 232 229 230 233 238 243 246 248 248 248 246 246 248 250 252 252 253 255 260 268 275 278 277 276 275 274 273 272 272 272 272 272 271 272 272 272 273 274 275 274 274 274 275 278 281 284 286 288
117 125 131 132 134 151 169 182 192 198 202 203 202 201 200 200 200 197 195 197 201 205 206 206 205 208 211 213 214 215 217 219 221 223 225 228 231 231 229 226 225 226 232 240 246 247 246 244 243 243 244 247 250 252 254 254 255 260 269 277 279 277 276 275 274 273 272 272 272 272 271 271 272 272 272 273 275 275 276 277 277 278 280 282 283 285 286
118 121 126 126 125 132 146 160 175 187 197 202 204 203 201 201 202 201 196 193 194 196 198 198 198 201 207 212 215 215 213 214 215 215 217 219 222 223 223 223 224 228 234 240 243 243 240 238 239 244 248 250 252 253 254 254 255 261 268 274 274 273 273 273 272 272 272 271 271 272 272 272 272 272 273 274 275 276 277 278 279 280 280 281 282 282 283
115 120 125 124 123 130 136 143 153 164 171 186 200 204 204 204 205 206 205 202 198 197 200 201 200 202 207 211 214 215 213 213 214 215 214 215 216 218 220 223 226 231 237 239 240 241 241 240 244 248 251 251 252 254 255 256 258 263 267 269 269 268 269 269 269 270 271 271 272 272 271 272 272 272 273 274 275 276 276 277 278 278 279 280 281 281 281
130 135 141 141 139 141 143 145 150 156 157 164 180 191 200 208 212 214 217 219 217 213 212 214 215 219 222 221 219 218 216 214 214 215 216 217 219 221 223 225 228 232 236 238 239 241 243 243 245 248 249 251 253 255 257 259 262 264 265 266 265 266 266 266 267 268 269 269 270 271 271 271 271 271 272 273 273 274 275 275 276 277 277 278 279 280 280
140 143 147 150 150 149 151 155 158 161 166 169 172 174 181 196 210 218 222 227 229 228 228 231 233 236 236 232 227 224 221 220 219 218 220 222 225 227 227 229 231 233 235 237 238 240 242 244 246 248 250 252 255 257 259 262 264 264 263 264 264 264 264 264 265 266 267 268 269 269 269 270 270 270 271 272 272 273 274 274 274 275 276 276 277 278 279
132 138 144 150 155 160 164 168 170 173 176 175 174 177 184 189 195 205 217 227 232 232 232 235 237 236 234 235 234 230 227 225 225 225 225 226 227 227 227 229 231 232 234 235 237 240 243 247 250 252 255 257 259 260 262 263 262 262 262 262 262 263 263 263 263 265 266 266 267 268 268 269 270 270 271 271 271 271 272 273 273 273 274 274 274 275 276
136 141 143 147 155 162 166 168 171 176 177 172 171 179 189 191 191 199 210 217 221 222 223 225 227 227 229 234 237 236 234 233 232 231 230 230 230 230 231 232 233 234 236 238 241 245 249 252 255 258 259 260 261 261 261 260 260 259 260 260 260 261 262 262 262 263 264 265 266 267 267 268 269 270 271 272 272 272 272 272 272 271 271 271 271 272 274
136 141 141 140 146 153 156 157 160 163 163 161 164 175 187 192 193 197 200 202 205 211 216 219 222 224 228 234 238 238 237 237 237 236 236 236 236 236 237 237 238 239 241 244 248 251 253 255 257 258 258 258 258 257 257 256 256 256 257 257 258 259 259 259 260 261 262 264 265 266 267 268 269 270 270 271 272 272 272 272 271 270 270 270 270 271 273
126 139 142 141 145 150 151 152 155 156 154 155 162 171 179 184 187 192 195 197 201 207 211 216 220 224 228 233 237 238 237 236 236 236 236 237 238 239 240 242 244 245 248 250 252 254 255 255 255 254 254 254 254 254 254 254 255 255 256 257 257 258 259 260 260 261 262 263 265 266 268 269 269 270 270 270 270 270 270 270 270 270 270 270 271 271 272
120 146 175 188 192 192 190 188 184 180 173 168 169 173 178 181 184 190 194 198 201 204 208 212 217 221 223 226 228 229 229 229 229 230 231 232 234 236 239 242 245 247 248 250 251 252 252 251 251 251 252 252 253 253 254 255 256 257 258 259 260 261 262 262 263 263 263 264 265 266 267 268 269 269 269 269 269 268 268 267 267 268 269 269 270 270 269
93 118 146 172 194 212 223 226 227 226 221 212 207 204 203 203 204 205 206 205 206 207 209 212 215 217 218 219 220 221 222 223 224 226 227 229 232 235 237 239 241 243 245 246 247 248 248 249 250 252 253 254 255 256 257 258 259 260 261 262 263 264 264 264 265 266 266 266 266 265 266 266 267 267 267 267 267 266 266 266 266 266 267 268 269 269 268
19 42 68 104 149 186 207 217 223 226 225 223 224 226 227 225 224 223 222 221 219 217 216 217 218 219 220 221 222 223 224 226 228 230 232 235 237 239 241 242 243 244 245 245 246 247 248 250 251 252 254 255 256 257 258 260 260 262 262 263 264 265 265 266 267 267 267 268 268 268 268 268 268 268 268 268 268 267 267 267 266 266 266 267 267 266 266
313 314 319 319 303 286 278 263 247 243 239 232 228 230 235 236 234 232 230 228 226 224 223 222 222 222 224 225 227 228 230 232 235 238 240 242 244 245 246 247 247 247 247 247 248 248 249 251 252 253 254 256 257 257 258 260 260 261 262 263 264 265 266 267 267 268 268 268 269 269 270 270 270 270 270 270 270 270 271 270 269 269 268 267 265 264 263
286 287 286 283 280 280 281 279 274 269 266 258 248 242 241 243 245 248 249 247 244 240 237 234 232 232 232 234 235 237 238 239 241 242 244 246 247 248 249 248 248 249 249 250 250 251 251 252 253 254 255 257 258 259 260 261 262 262 263 264 265 265 266 267 268 268 269 269 269 269 269 269 269 269 269 269 269 269 270 270 270 269 268 267 266 265 264
277 276 275 273 272 269 267 266 266 265 264 264 262 260 256 252 251 253 254 254 255 254 251 248 247 245 244 245 247 249 249 250 250 249 250 251 251 252 252 253 253 253 254 254 255 255 255 256 256 257 258 259 260 262 263 265 266 267 267 267 268 268 269 269 270 270 270 270 270 270 270 269 269 269 269 268 268 267 267 267 267 267 267 266 265 264 263
273 269 267 268 267 265 264 263 261 259 258 258 258 259 259 259 258 257 256 257 257 259 259 258 257 256 254 254 255 255 255 255 255 254 253 253 253 254 255 256 257 257 258 258 258 259 259 260 260 261 262 263 264 265 265 266 266 267 268 269 270 270 271 271 272 272 272 272 272 272 271 271 271 271 270 270 269 269 268 267 266 266 266 266 265 263 262
Height
5738 5742 5746 5750 5755 5758 5762 5765 5769 5774 5778 5783 5786 5788 5793 5799 5802 5807 5814 5817 5818 5822 5824 5826 5827 5828 5829 5831 5833 5835 5837 5839 5840 5842 5844 5846 5848 5850 5852 5854 5856 5858 5861 5863 5866 5867 5869 5871 5873 5875 5876 5877 5878 5879 5880 5880 5881 5882 5883 5885 5887 5889 5890 5891 5893 5894 5894 5894 5895 5896 5897 5898 5899 5900 5900 5901 5901 5901 5901 5902 5902 5903 5903 5904 5904 5904 5905
5731 5736 5739 5744 5750 5754 5757 5760 5765 5769 5773 5778 5780 5783 5789 5794 5798 5805 5811 5812 5815 5818 5821 5824 5826 5826 5827 5829 5831 5833 5835 5836 5838 5839 5840 5841 5843 5845 5847 5849 5852 5854 5856 5859 5861 5863 5865 5867 5869 5871 5873 5874 5875 5876 5877 5878 5879 5879 5880 5882 5884 5886 5887 5889 5890 5891 5891 5892 5893 5894 5895 5896 5897 5898 5898 5899 5899 5900 5900 5901 5901 5901 5902 5902 5902 5903 5903
5726 5730 5734 5739 5744 5748 5751 5754 5759 5764 5767 5772 5774 5778 5785 5789 5794 5802 5807 5808 5812 5816 5819 5822 5823 5823 5825 5827 5828 5830 5832 5833 5835 5836 5837 5838 5839 5842 5844 5846 5848 5850 5853 5855 5857 5859 5862 5864 5866 5868 5870 5872 5873 5873 5874 5875 5877 5877 5878 5880 5881 5883 5885 5886 5887 5887 5888 5889 5891 5892 5893 5894 5895 5896 5896 5897 5898 5898 5899 5899 5900 5900 5900 5901 5901 5901 5901
5719 5723 5727 5732 5737 5741 5744 5748 5753 5758 5762 5766 5770 5774 5780 5784 5790 5798 5802 5804 5809 5814 5816 5819 5820 5822 5823 5824 5826 5827 5829 5830 5832 5833 5835 5837 5838 5840 5842 5844 5846 5848 5850 5852 5854 5856 5858 5860 5862 5864 5867 5868 5870 5871 5872 5873 5874 5874 5875 5877 5878 5880 5881 5882 5883 5885 5886 5887 5888 5889 5890 5891 5892 5893 5894 5895 5896 5896 5897 5897 5898 5898 5899 5899 5899 5899 5900
5712 5715 5720 5726 5730 5734 5738 5742 5749 5754 5757 5762 5766 5769 5775 5779 5785 5792 5797 5800 5806 5810 5812 5814 5816 5819 5821 5822 5824 5825 5825 5827 5828 5830 5833 5834 5836 5838 5839 5841 5843 5845 5847 5849 5851 5853 5855 5857 5859 5861 5863 5865 5867 5869 5869 5870 5870 5871 5873 5874 5875 5876 5878 5879 5880 5882 5883 5884 5886 5887 5888 5889 5889 5890 5891 5892 5893 5894 5894 5895 5895 5896 5896 5897 5897 5897 5898
5704 5707 5714 5720 5724 5727 5732 5738 5744 5748 5752 5757 5760 5764 5770 5774 5779 5786 5791 5795 5802 5806 5807 5809 5813 5816 5819 5820 5821 5821 5821 5823 5825 5827 5829 5831 5833 5834 5836 5838 5840 5842 5844 5846 5848 5850 5852 5853 5856 5857 5859 5862 5864 5865 5866 5867 5868 5869 5870 5872 5872 5874 5875 5876 5878 5879 5880 5881 5883 5884 5885 5885 5886 5886 5887 5889 5890 5891 5891 5891 5892 5893 5894 5894 5895 5895 5895
5697 5701 5708 5714 5718 5721 5726 5731 5737 5742 5747 5751 5754 5758 5764 5768 5773 5780 5785 5790 5797 5801 5802 5805 5810 5812 5814 5816 5817 5818 5819 5820 5822 5825 5827 5828 5830 5831 5833 5835 5837 5839 5841 5843 5845 5847 5848 5850 5852 5854 5856 5859 5861 5862 5864 5865 5866 5867 5868 5869 5870 5872 5873 5874 5875 5876 5877 5879 5880 5880 5881 5882 5883 5884 5885 5885 5886 5887 5888 5888 5889 5889 5890 5890 5891 5892 5892
5690 5695 5701 5707 5712 5715 5719 5724 5732 5738 5742 5745 5749 5753 5758 5763 5768 5772 5778 5784 5792 5796 5798 5800 5805 5807 5809 5811 5814 5816 5817 5818 5820 5822 5824 5826 5828 5829 5831 5833 5835 5837 5839 5841 5843 5844 5845 5847 5849 5852 5853 5855 5857 5859 5861 5863 5864 5865 5866 5867 5868 5870 5871 5872 5873 5874 5875 5876 5876 5877 5878 5879 5880 5881 5882 5883 5883 5884 5884 5885 5886 5886 5886 5887 5888 5888 5888
5684 5688 5694 5701 5706 5709 5714 5719 5724 5730 5735 5739 5744 5748 5752 5756 5760 5765 5771 5779 5787 5792 5794 5796 5799 5802 5804 5807 5811 5814 5815 5816 5818 5819 5821 5823 5825 5827 5829 5830 5832 5835 5837 5838 5840 5841 5843 5845 5846 5848 5850 5852 5854 5857 5858 5860 5861 5862 5863 5865 5866 5867 5869 5870 5871 5872 5872 5873 5873 5874 5875 5876 5877 5878 5879 5880 5880 5880 5881 5881 5882 5883 5883 5883 5884 5884 5884
5676 5681 5687 5694 5700 5705 5710 5712 5715 5722 5729 5734 5739 5744 5746 5749 5754 5760 5766 5773 5781 5786 5789 5791 5794 5798 5800 5803 5808 5811 5812 5813 5815 5817 5818 5820 5822 5824 5826 5828 5829 5832 5834 5835 5837 5839 5840 5842 5843 5845 5847 5849 5851 5853 5855 5857 5859 5859 5861 5862 5863 5865 5866 5867 5868 5869 5869 5870 5870 5871 5872 5873 5874 5875 5876 5876 5877 5877 5877 5877 5878 5878 5879 5879 5879 5879 5880
5668 5674 5681 5688 5694 5698 5701 5703 5707 5716 5723 5728 5734 5740 5741 5743 5749 5756 5760 5767 5774 5780 5784 5787 5790 5792 5794 5798 5804 5806 5807 5808 5810 5813 5815 5816 5818 5821 5823 5825 5827 5828 5830 5832 5834 5835 5837 5839 5841 5842 5844 5846 5848 5850 5852 5854 5855 5857 5858 5859 5860 5861 5862 5864 5865 5865 5866 5867 5868 5869 5870 5870 5871 5871 5872 5873 5873 5872 5873 5873 5874 5874 5875 5875 5876 5876 5876
5661 5668 5675 5681 5686 5689 5692 5695 5701 5710 5717 5722 5728 5734 5736 5738 5744 5750 5755 5761 5767 5774 5779 5782 5785 5786 5789 5793 5799 5801 5802 5803 5805 5808 5810 5812 5814 5817 5819 5821 5824 5825 5827 5829 5830 5832 5834 5836 5837 5839 5840 5842 5844 5846 5848 5850 5852 5854 5855 5856 5856 5858 5859 5860 5861 5862 5863 5864 5865 5866 5867 5867 5867 5867 5868 5869 5868 5868 5869 5869 5870 5870 5871 5872 5872 5873 5872
5654 5661 5667 5672 5676 5681 5684 5688 5695 5704 5710 5715 5721 5727 5729 5733 5738 5744 5749 5755 5761 5767 5773 5777 5779 5782 5784 5789 5794 5796 5798 5799 5800 5803 5806 5808 5810 5813 5815 5817 5820 5822 5824 5825 5827 5828 5830 5832 5834 5836 5837 5838 5840 5842 5844 5846 5848 5850 5851 5851 5853 5854 5856 5857 5858 5859 5860 5861 5862 5862 5862 5863 5863 5863 5864 5864 5864 5864 5864 5865 5865 5866 5866 5867 5867 5868 5867
5647 5654 5660 5664 5668 5673 5677 5682 5689 5698 5704 5709 5714 5720 5723 5727 5732 5738 5743 5749 5755 5760 5766 5771 5774 5777 5780 5784 5788 5791 5793 5794 5796 5799 5801 5804 5806 5809 5811 5813 5815 5818 5820 5822 5823 5825 5826 5827 5830 5832 5833 5835 5837 5838 5840 5842 5844 5845 5846 5848 5849 5851 5852 5854 5855 5855 5856 5857 5858 5858 5858 5859 5859 5859 5859 5859 5859 5859 5860 5860 5860 5861 5861 5861 5862 5862 5862
5641 5647 5651 5655 5659 5664 5670 5676 5684 5692 5698 5702 5706 5712 5716 5720 5726 5732 5737 5744 5749 5754 5759 5764 5769 5772 5775 5778 5782 5785 5788 5790 5791 5794 5797 5799 5802 5804 5806 5808 5811 5813 5816 5817 5819 5821 5822 5824 5825 5828 5830 5831 5833 5835 5837 5838 5840 5841 5843 5844 5846 5847 5849 5850 5851 5852 5852 5853 5853 5854 5854 5855 5854 5855 5855 5855 5854 5855 5855 5855 5855 5856 5856 5856 5856 5856 5856
5631 5637 5642 5647 5652 5659 5666 5672 5679 5685 5690 5695 5700 5705 5709 5714 5720 5726 5731 5738 5744 5749 5752 5757 5762 5767 5770 5773 5776 5780 5783 5785 5787 5789 5792 5794 5797 5799 5802 5804 5806 5808 5811 5813 5815 5816 5818 5820 5822 5823 5825 5827 5829 5831 5833 5835 5836 5838 5839 5841 5842 5843 5845 5845 5846 5847 5848 5848 5849 5849 5850 5850 5850 5850 5850 5850 5850 5850 5850 5850 5850 5849 5850 5850 5849 5849 5850
5621 5628 5636 5642 5648 5655 5661 5665 5670 5677 5684 5690 5695 5699 5704 5709 5715 5720 5726 5731 5738 5743 5747 5752 5757 5761 5765 5768 5771 5774 5777 5780 5782 5785 5787 5790 5792 5795 5797 5799 5802 5804 5806 5808 5811 5812 5814 5816 5818 5820 5821 5823 5825 5826 5828 5830 5832 5833 5835 5836 5838 5839 5840 5841 5842 5842 5843 5844 5844 5845 5845 5845 5846 5846 5846 5845 5845 5845 5845 5844 5844 5843 5844 5843 5842 5842 5843
5615 5623 5632 5638 5644 5649 5652 5656 5664 5672 5680 5685 5689 5693 5698 5703 5708 5714 5720 5725 5731 5736 5742 5746 5751 5755 5759 5762 5765 5768 5772 5775 5778 5780 5782 5785 5787 5790 5793 5795 5797 5799 5801 5804 5806 5808 5810 5812 5814 5816 5817 5819 5820 5822 5823 5825 5827 5829 5830 5832 5833 5834 5835 5836 5837 5837 5838 5839 5839 5840 5840 5840 5841 5841 5840 5840 5840 5839 5839 5838 5838 5838 5838 5837 5836 5836 5835
5610 5617 5625 5631 5637 5642 5646 5652 5660 5666 5673 5679 5684 5687 5691 5697 5702 5708 5714 5719 5724 5730 5736 5741 5746 5750 5753 5756 5759 5763 5767 5770 5773 5775 5778 5780 5783 5785 5787 5790 5792 5794 5796 5799 5801 5803 5805 5808 5809 5811 5813 5814 5816 5817 5819 5820 5822 5823 5825 5826 5828 5829 5830 5831 5832 5832 5833 5834 5834 5835 5835 5835 5835 5835 5835 5834 5834 5834 5833 5833 5832 5832 5831 5831 5830 5829 5829
5605 5611 5619 5626 5632 5636 5642 5648 5653 5658 5665 5672 5677 5680 5685 5691 5697 5702 5708 5713 5718 5723 5729 5736 5741 5745 5748 5751 5753 5757 5761 5764 5767 5770 5772 5775 5777 5780 5782 5784 5787 5790 5792 5794 5796 5798 5800 5803 5805 5806 5808 5809 5811 5812 5814 5815 5817 5818 5819 5821 5822 5823 5824 5825 5826 5827 5828 5828 5829 5829 5829 5829 5829 5829 5829 5829 5829 5828 5828 5827 5826 5825 5825 5824 5823 5823 5822
5600 5607 5616 5622 5626 5630 5636 5642 5647 5651 5657 5664 5670 5675 5680 5686 5691 5697 5702 5707 5713 5717 5722 5729 5735 5740 5743 5745 5748 5751 5755 5758 5762 5764 5767 5770 5772 5774 5777 5779 5781 5784 5786 5789 5791 5793 5795 5797 5799 5801 5803 5804 5806 5807 5809 5810 5812 5813 5814 5816 5817 5818 5819 5820 5820 5821 5822 5822 5823 5823 5823 5822 5822 5822 5823 5822 5822 5822 5821 5820 5819 5819 5818 5817 5816 5816 5815
5595 5604 5611 5615 5618 5623 5630 5635 5640 5645 5651 5657 5664 5669 5675 5680 5685 5691 5696 5701 5707 5712 5716 5722 5728 5734 5738 5740 5742 5745 5748 5752 5755 5758 5761 5764 5767 5770 5772 5774 5776 5779 5781 5783 5785 5787 5789 5791 5793 5795 5797 5799 5801 5802 5804 5805 5807 5808 5809 5810 5811 5812 5813 5814 5814 5815 5815 5816 5816 5816 5816 5816 5816 5816 5816 5815 5815 5815 5814 5814 5812 5811 5811 5810 5809 5808 5806
5594 5601 5605 5607 5611 5617 5624 5629 5633 5640 5646 5651 5657 5664 5670 5675 5680 5685 5690 5695 5701 5706 5711 5715 5721 5727 5732 5735 5737 5740 5743 5746 5749 5752 5755 5758 5761 5764 5767 5769 5772 5774 5776 5778 5780 5782 5784 5786 5787 5789 5791 5793 5795 5797 5798 5800 5801 5803 5804 5804 5805 5806 5807 5807 5808 5808 5809 5809 5809 5809 5809 5809 5809 5809 5808 5807 5807 5807 5807 5806 5805 5804 5803 5802 5801 5800 5798
5592 5596 5598 5599 5604 5612 5618 5622 5627 5635 5641 5645 5651 5659 5665 5670 5676 5680 5684 5689 5695 5701 5706 5709 5713 5719 5725 5729 5732 5735 5738 5741 5743 5746 5749 5752 5755 5759 5762 5764 5767 5769 5770 5772 5774 5776 5778 5780 5782 5784 5786 5788 5789 5791 5792 5794 5795 5796 5797 5798 5799 5799 5800 5801 5801 5802 5802 5802 5802 5802 5802 5802 5801 5801 5801 5800 5800 5799 5799 5798 5797 5796 5795 5794 5793 5791 5789
5584 5587 5588 5592 5598 5606 5611 5615 5622 5631 5636 5641 5646 5653 5658 5664 5671 5675 5679 5683 5690 5696 5700 5704 5708 5712 5717 5722 5726 5729 5732 5735 5738 5740 5743 5746 5749 5752 5755 5758 5760 5763 5765 5767 5768 5770 5772 5774 5776 5778 5780 5782 5784 5785 5786 5787 5788 5789 5790 5791 5792 5792 5793 5794 5794 5795 5795 5795 5795 5795 5794 5794 5793 5793 5793 5792 5792 5791 5791 5790 5789 5788 5787 5786 5785 5783 5781
5577 5578 5580 5585 5593 5599 5605 5611 5619 5626 5631 5635 5641 5647 5653 5659 5666 5671 5674 5679 5685 5690 5695 5699 5703 5706 5710 5714 5720 5724 5727 5729 5732 5735 5737 5740 5743 5745 5748 5751 5753 5756 5758 5760 5762 5764 5766 5768 5771 5773 5775 5776 5778 5779 5780 5781 5781 5782 5783 5784 5785 5785 5786 5786 5787 5787 5787 5787 5787 5786 5786 5785 5785 5785 5784 5784 5783 5783 5782 5781 5781 5780 5779 5777 5775 5773 5771
5572 5572 5574 5580 5588 5595 5601 5609 5615 5619 5624 5630 5636 5641 5648 5654 5660 5665 5670 5675 5681 5686 5690 5694 5698 5702 5704 5707 5711 5716 5720 5723 5726 5728 5731 5733 5736 5738 5741 5744 5746 5748 5750 5752 5755 5757 5759 5762 5764 5766 5768 5769 5771 5772 5773 5774 5775 5776 5776 5777 5778 5778 5779 5779 5779 5779 5779 5779 5779 5778 5777 5777 5776 5776 5776 5776 5775 5774 5773 5773 5772 5772 5771 5768 5765 5763 5761
5568 5569 5570 5576 5585 5591 5597 5604 5609 5613 5619 5627 5632 5637 5643 5649 5655 5660 5666 5671 5678 5684 5688 5690 5692 5695 5697 5699 5703 5707 5711 5715 5719 5721 5724 5727 5729 5731 5734 5736 5739 5741 5743 5745 5747 5750 5752 5754 5756 5758 5760 5762 5763 5765 5766 5767 5768 5769 5770 5770 5771 5771 5772 5772 5772 5772 5772 5772 5771 5770 5770 5769 5768 5768 5768 5767 5766 5766 5765 5764 5764 5764 5763 5760 5756 5754 5753
5563 5563 5566 5572 5579 5584 5590 5597 5603 5609 5617 5625 5630 5634 5639 5645 5651 5658 5664 5668 5674 5681 5685 5685 5686 5687 5688 5690 5695 5699 5703 5707 5711 5714 5717 5720 5722 5725 5727 5730 5732 5734 5736 5738 5740 5742 5745 5747 5749 5751 5753 5755 5756 5757 5759 5760 5761 5761 5762 5763 5764 5764 5765 5765 5765 5764 5764 5764 5763 5763 5762 5761 5760 5760 5760 5759 5758 5757 5757 5756 5756 5755 5754 5752 5749 5747 5745
5557 5558 5561 5566 5571 5576 5584 5592 5599 5606 5615 5622 5627 5631 5636 5641 5648 5655 5661 5665 5670 5675 5678 5679 5680 5681 5682 5685 5690 5693 5697 5700 5704 5707 5710 5713 5716 5718 5721 5723 5725 5727 5729 5731 5733 5736 5738 5740 5742 5744 5746 5747 5748 5750 5751 5752 5754 5754 5755 5756 5756 5757 5757 5757 5757 5757 5756 5756 5755 5755 5754 5754 5753 5753 5752 5751 5750 5749 5748 5748 5748 5747 5745 5742 5741 5739 5738
5552 5553 5556 5561 5566 5572 5581 5588 5595 5602 5611 5618 5623 5628 5633 5638 5644 5651 5658 5663 5667 5669 5671 5674 5675 5676 5678 5682 5685 5688 5691 5694 5697 5700 5703 5706 5709 5712 5714 5717 5718 5720 5722 5724 5727 5729 5731 5733 5735 5736 5738 5740 5741 5743 5744 5746 5747 5748 5749 5749 5750 5750 5750 5750 5750 5749 5749 5748 5747 5747 5746 5746 5745 5745 5744 5744 5742 5742 5741 5740 5740 5739 5737 5734 5732 5732 5730
5550 5551 5554 5560 5566 5572 5579 5586 5593 5600 5608 5615 5620 5625 5631 5636 5642 5647 5653 5659 5662 5664 5665 5668 5669 5671 5674 5677 5679 5683 5686 5688 5690 5693 5697 5699 5703 5705 5708 5710 5711 5713 5715 5718 5720 5722 5724 5726 5727 5729 5731 5733 5735 5737 5738 5739 5741 5742 5743 5743 5744 5744 5743 5743 5742 5742 5741 5741 5740 5739 5738 5738 5737 5737 5737 5736 5735 5734 5734 5733 5732 5732 5730 5727 5725 5723 5722
5552 5553 5557 5564 5571 5577 5583 5589 5595 5602 5609 5614 5618 5623 5628 5632 5637 5642 5647 5652 5656 5658 5660 5662 5663 5666 5669 5671 5674 5677 5680 5682 5684 5687 5690 5693 5696 5699 5700 5702 5703 5705 5708 5711 5713 5716 5717 5719 5720 5722 5724 5726 5728 5730 5731 5733 5734 5736 5736 5737 5736 5736 5736 5735 5734 5733 5733 5732 5732 5731 5730 5730 5729 5729 5729 5729 5728 5727 5726 5726 5725 5724 5722 5720 5717 5715 5715
5559 5561 5565 5570 5577 5584 5589 5594 5599 5604 5609 5613 5616 5620 5624 5628 5633 5638 5642 5646 5649 5652 5653 5655 5658 5660 5663 5666 5669 5672 5675 5677 5680 5683 5686 5688 5691 5692 5693 5695 5697 5699 5702 5704 5707 5709 5711 5712 5713 5715 5717 5719 5721 5723 5725 5727 5728 5729 5729 5729 5729 5729 5728 5727 5726 5725 5724 5723 5723 5722 5722 5721 5721 5721 5722 5721 5721 5720 5719 5719 5718 5716 5715 5713 5710 5708 5707
5567 5569 5573 5577 5581 5586 5592 5597 5601 5605 5609 5611 5614 5618 5622 5626 5631 5635 5639 5642 5645 5647 5649 5651 5654 5656 5658 5660 5663 5667 5670 5672 5675 5677 5680 5683 5685 5687 5688 5689 5691 5693 5696 5699 5702 5703 5704 5705 5707 5709 5711 5714 5716 5718 5719 5720 5721 5722 5722 5722 5721 5720 5719 5718 5718 5717 5716 5715 5715 5714 5713 5713 5713 5713 5714 5713 5713 5713 5712 5712 5711 5709 5708 5706 5703 5701 5700
5573 5577 5580 5583 5586 5589 5593 5598 5602 5605 5608 5611 5615 5619 5622 5626 5630 5633 5636 5639 5642 5644 5646 5648 5650 5653 5655 5657 5659 5661 5664 5666 5669 5672 5675 5678 5680 5682 5683 5684 5685 5688 5692 5694 5696 5697 5698 5699 5702 5704 5706 5709 5711 5712 5713 5713 5714 5714 5714 5714 5713 5712 5711 5710 5710 5709 5708 5708 5707 5706 5706 5706 5706 5706 5706 5706 5706 5706 5705 5705 5704 5703 5702 5700 5697 5694 5693
5579 5582 5585 5587 5589 5592 5595 5599 5602 5606 5609 5612 5615 5619 5622 5626 5629 5631 5632 5635 5638 5640 5643 5645 5647 5650 5652 5655 5657 5659 5660 5661 5663 5666 5669 5672 5674 5676 5678 5678 5680 5682 5686 5688 5689 5690 5692 5695 5698 5699 5701 5703 5705 5705 5706 5707 5707 5706 5706 5706 5705 5704 5703 5703 5702 5702 5701 5700 5700 5699 5699 5698 5698 5698 5698 5698 5698 5698 5698 5698 5697 5696 5696 5694 5692 5689 5687
5583 5586 5589 5591 5593 5595 5597 5600 5604 5606 5609 5611 5614 5617 5621 5625 5627 5628 5629 5631 5634 5638 5641 5643 5645 5647 5649 5652 5654 5656 5657 5658 5659 5661 5663 5665 5667 5669 5671 5672 5674 5677 5680 5682 5684 5685 5688 5690 5692 5693 5695 5696 5698 5698 5699 5699 5699 5699 5699 5699 5698 5696 5696 5695 5695 5694 5694 5693 5693 5692 5692 5691 5691 5691 5691 5692 5691 5691 5691 5691 5691 5690 5689 5688 5687 5684 5682
5586 5588 5591 5593 5596 5598 5600 5602 5604 5606 5608 5611 5613 5616 5618 5622 5624 5626 5628 5630 5632 5635 5638 5640 5642 5644 5646 5648 5650 5652 5652 5653 5655 5657 5658 5659 5661 5663 5665 5667 5669 5673 5676 5677 5678 5680 5682 5684 5686 5687 5688 5689 5690 5691 5692 5692 5692 5692 5692 5692 5691 5690 5689 5688 5688 5688 5687 5687 5686 5686 5685 5685 5685 5685 5685 5685 5685 5685 5684 5684 5684 5684 5683 5682 5681 5680 5678
5589 5590 5592 5594 5596 5599 5600 5602 5604 5605 5607 5609 5611 5614 5616 5618 5620 5623 5625 5628 5630 5633 5635 5637 5639 5641 5642 5644 5646 5647 5648 5649 5650 5652 5654 5655 5657 5659 5661 5663 5665 5668 5670 5671 5673 5674 5676 5678 5679 5681 5682 5683 5684 5684 5685 5685 5685 5685 5685 5685 5684 5683 5683 5682 5682 5682 5681 5681 5681 5680 5680 5679 5679 5679 5678 5678 5678 5678 5678 5678 5677 5677 5677 5677 5677 5675 5674
5592 5593 5595 5596 5598 5600 5601 5602 5603 5604 5605 5607 5609 5612 5614 5616 5618 5621 5623 5625 5628 5630 5632 5633 5635 5637 5639 5641 5643 5644 5645 5646 5646 5648 5650 5652 5653 5655 5657 5658 5661 5662 5664 5666 5667 5669 5670 5672 5673 5674 5675 5676 5677 5678 5678 5678 5678 5678 5678 5678 5677 5677 5676 5676 5676 5676 5676 5676 5675 5675 5674 5674 5673 5673 5672 5672 5672 5672 5671 5671 5671 5671 5671 5671 5672 5671 5669
5595 5596 5597 5598 5599 5601 5602 5603 5604 5605 5605 5607 5609 5611 5613 5614 5616 5619 5621 5622 5624 5626 5628 5629 5631 5633 5635 5637 5639 5640 5641 5642 5643 5645 5646 5647 5649 5651 5652 5653 5655 5657 5659 5660 5662 5664 5665 5666 5667 5668 5669 5670 5670 5671 5671 5672 5672 5672 5672 5671 5671 5670 5670 5670 5669 5669 5669 5670 5670 5669 5669 5668 5668 5667 5666 5666 5665 5665 5665 5665 5665 5665 5665 5666 5666 5666 5665
5597 5598 5598 5598 5599 5600 5601 5603 5604 5606 5606 5607 5608 5610 5612 5613 5615 5617 5619 5620 5621 5622 5624 5625 5628 5630 5632 5633 5635 5636 5637 5638 5639 5640 5641 5643 5644 5646 5647 5648 5650 5651 5653 5655 5656 5658 5659 5660 5660 5661 5662 5663 5663 5664 5665 5665 5666 5666 5665 5665 5664 5664 5664 5663 5663 5662 5663 5663 5663 5663 5663 5662 5662 5661 5661 5660 5659 5659 5659 5659 5659 5659 5660 5661 5661 5661 5661
5599 5599 5600 5600 5600 5601 5601 5602 5603 5604 5605 5605 5606 5608 5610 5612 5613 5614 5615 5616 5617 5618 5620 5622 5624 5626 5627 5629 5630 5632 5633 5634 5635 5636 5637 5638 5640 5641 5642 5643 5645 5646 5647 5649 5650 5651 5652 5653 5654 5654 5655 5656 5657 5658 5659 5659 5659 5659 5659 5658 5658 5657 5657 5657 5656 5656 5656 5656 5657 5657 5657 5656 5656 5656 5655 5655 5654 5654 5654 5654 5654 5654 5654 5655 5656 5656 5656
5601 5601 5602 5602 5602 5602 5602 5603 5603 5604 5604 5604 5604 5606 5608 5610 5610 5611 5613 5614 5615 5616 5617 5619 5620 5622 5623 5624 5626 5627 5629 5630 5631 5632 5633 5634 5635 5636 5637 5638 5639 5640 5642 5643 5644 5645 5646 5646 5647 5648 5649 5650 5650 5651 5652 5653 5653 5653 5653 5652 5651 5651 5651 5651 5650 5650 5650 5650 5650 5650 5650 5650 5650 5650 5650 5650 5650 5650 5649 5649 5649 5649 5649 5650 5650 5651 5651
5605 5604 5604 5604 5604 5604 5604 5605 5605 5606 5606 5606 5606 5607 5607 5608 5609 5610 5611 5612 5613 5613 5615 5616 5617 5618 5619 5620 5621 5623 5624 5625 5626 5627 5628 5629 5630 5631 5632 5633 5634 5634 5635 5636 5637 5638 5639 5640 5641 5642 5643 5644 5645 5646 5647 5647 5647 5647 5647 5647 5646 5646 5645 5645 5644 5644 5644 5643 5644 5644 5644 5644 5644 5644 5644 5644 5644 5644 5645 5644 5644 5644 5644 5645 5645 5645 5646
5606 5607 5607 5606 5606 5606 5606 5606 5606 5606 5607 5607 5608 5608 5608 5608 5609 5609 5610 5610 5611 5611 5612 5613 5614 5614 5615 5616 5617 5618 5619 5620 5621 5622 5623 5624 5625 5626 5627 5627 5628 5629 5629 5630 5631 5633 5634 5635 5636 5637 5638 5639 5640 5641 5641 5641 5641 5641 5641 5641 5641 5640 5640 5640 5639 5639 5638 5638 5637 5638 5638 5638 5638 5638 5638 5638 5638 5638 5639 5639 5639 5639 5639 5639 5640 5640 5640
5605 5606 5606 5606 5606 5606 5606 5606 5606 5606 5606 5606 5607 5607 5607 5607 5607 5608 5608 5609 5609 5609 5610 5610 5610 5611 5611 5612 5613 5614 5615 5616 5616 5617 5618 5619 5620 5621 5622 5622 5623 5624 5625 5626 5627 5628 5629 5630 5631 5632 5633 5633 5634 5634 5635 5635 5635 5635 5635 5635 5635 5635 5634 5634 5634 5633 5633 5632 5632 5632 5632 5632 5632 5632 5632 5632 5632 5632 5633 5633 5633 5633 5634 5634 5635 5634 5634
5605 5605 5605 5605 5605 5604 5604 5604 5605 5605 5605 5605 5605 5605 5605 5606 5606 5606 5606 5606 5607 5607 5607 5607 5608 5608 5609 5609 5610 5611 5611 5612 5613 5613 5614 5615 5616 5616 5617 5618 5619 5620 5621 5622 5622 5623 5624 5625 5625 5626 5627 5627 5628 5628 5629 5629 5629 5629 5629 5629 5629 5629 5629 5629 5629 5628 5628 5627 5627 5627 5626 5626 5626 5626 5627 5627 5627 5627 5627 5627 5627 5627 5628 5628 5629 5629 5628
5606 5605 5605 5605 5604 5604 5603 5603 5603 5603 5603 5603 5604 5604 5604 5604 5604 5604 5605 5605 5605 5605 5605 5605 5605 5606 5606 5607 5608 5608 5609 5609 5610 5610 5611 5611 5612 5613 5613 5614 5615 5616 5617 5617 5618 5618 5619 5620 5621 5621 5622 5622 5623 5623 5623 5623 5623 5623 5624 5624 5623 5624 5624 5623 5623 5623 5622 5622 5622 5621 5621 5621 5621 5621 5621 5621 5621 5621 5621 5621 5621 5621 5622 5622 5623 5623 5623
5605 5605 5605 5604 5604 5603 5603 5603 5602 5602 5602 5602 5602 5602 5603 5603 5603 5603 5603 5603 5603 5603 5604 5604 5604 5604 5605 5606 5606 5607 5607 5607 5607 5607 5607 5608 5609 5610 5610 5611 5612 5612 5613 5614 5614 5614 5615 5616 5616 5616 5617 5617 5617 5618 5618 5618 5618 5618 5618 5618 5618 5618 5618 5618 5617 5617 5617 5617 5617 5616 5616 5616 5616 5616 5616 5616 5616 5616 5616 5616 5616 5616 5616 5616 5617 5617 5617
5604 5604 5603 5603 5602 5602 5602 5602 5602 5602 5602 5601 5601 5601 5601 5601 5601 5601 5601 5601 5602 5602 5602 5602 5602 5603 5603 5604 5604 5605 5605 5605 5605 5605 5605 5605 5606 5607 5607 5608 5608 5609 5609 5610 5610 5611 5611 5611 5611 5611 5611 5611 5612 5612 5612 5613 5613 5613 5613 5613 5613 5613 5612 5612 5612 5612 5611 5611 5611 5611 5611 5611 5611 5610 5610 5610 5610 5610 5610 5610 5610 5610 5610 5610 5610 5611 5611